Weather History for CYUS - September, 2012

Change the Weather History Date:

Tuesday, September 25, 2012

  Actual Average Record
Temperature  
Mean Temperature 32 °F -  
Max Temperature 37 °F - - ()
Min Temperature 28 °F - - ()
Degree Days  
Heating Degree Days 32    
Moisture  
Dew Point -    
Average Humidity    
Maximum Humidity    
Minimum Humidity    
Precipitation  
Precipitation 0.00 in - - ()
Sea Level Pressure  
Sea Level Pressure 29.90 in    
Wind  
Wind Speed 7 mph ()    
Max Wind Speed 16 mph    
Max Gust Speed -    
Visibility 8.1 miles    
Events Rain , Snow    
T = Trace of Precipitation, MM = Missing Value Source: Averaged Metar Reports

Daily Weather History Graph

Daily Weather History Graph

Search for Another Location

Airport or City:

Trip Planner

Search our weather history database for the weather conditions in past years. The results will help you decide how hot, cold, wet, or windy it might be!

Date:

Astronomy

Sep. 25, 2012 Rise Set
Actual Time 7:07 AM CDT 7:00 PM CDT
Civil Twilight 6:09 AM CDT 7:58 PM CDT
Nautical Twilight 4:58 AM CDT 9:08 PM CDT
Astronomical Twilight 3:29 AM CDT 10:35 PM CDT
Moon 6:06 PM CDT (9/25) 12:17 AM CDT (9/25)
Length of Visible Light 13h 48m
Length of Day
11h 53m
Waxing Gibbous, 80% of the Moon is Illuminated
Sep 25
Waxing Gibbous
Sep 29
Full
Oct 8
Last Quarter
Oct 15
New
Oct 21
First Quarter

Hourly Weather History & Observations

Time (CDT) Temp. Windchill Dew Point Humidity Pressure Visibility Wind Dir Wind Speed Gust Speed Precip Events Conditions
12:00 AM 30.2 °F 22.6 °F - N/A% 29.98 in 9.0 mi ENE 8.1 mph - N/A   Partly Cloudy
12:17 AM 30.2 °F 25.4 °F - N/A% 29.96 in 9.0 mi ENE 4.6 mph - N/A   Mostly Cloudy
12:45 AM 30.2 °F 26.7 °F - N/A% 29.95 in 9.0 mi NNE 3.5 mph - N/A   Partly Cloudy
1:00 AM 29 °F - - % 29.97 in 9 mi NE 8.1 mph - -  
1:00 AM 30.2 °F 23.4 °F - N/A% 29.97 in 9.0 mi NNE 6.9 mph - N/A   Clear
1:20 AM 28.4 °F - - N/A% 29.96 in 9.0 mi Calm Calm - N/A   Mostly Cloudy
1:25 AM 28.4 °F 24.6 °F - N/A% 29.96 in 9.0 mi NNW 3.5 mph - N/A   Overcast
1:42 AM 28.4 °F - - N/A% 29.96 in 9.0 mi NW 2.3 mph - N/A   Overcast
1:44 AM 28.4 °F - - N/A% 29.96 in 9.0 mi Calm Calm - N/A   Overcast
1:54 AM 28.4 °F 24.6 °F - N/A% 29.96 in 9.0 mi NNW 3.5 mph - N/A   Scattered Clouds
1:58 AM 28.4 °F 23.3 °F - N/A% 29.96 in 9.0 mi West 4.6 mph - N/A   Mostly Cloudy
1:59 AM 28.4 °F 23.3 °F - N/A% 29.96 in 9.0 mi West 4.6 mph - N/A   Overcast
2:00 AM 28.4 °F 21.2 °F - N/A% 29.98 in 9.0 mi WNW 6.9 mph - N/A   Overcast
2:08 AM 30.2 °F 21.9 °F - N/A% 29.95 in 9.0 mi NNW 9.2 mph - N/A   Overcast
2:17 AM 30.2 °F 23.4 °F - N/A% 29.95 in 9.0 mi NNW 6.9 mph - N/A   Mostly Cloudy
2:24 AM 30.2 °F 23.4 °F - N/A% 29.96 in 9.0 mi NNW 6.9 mph - N/A   Mostly Cloudy
2:38 AM 30.2 °F 21.9 °F - N/A% 29.95 in 9.0 mi North 9.2 mph - N/A   Mostly Cloudy
3:00 AM 30.2 °F 25.4 °F - N/A% 29.97 in 9.0 mi North 4.6 mph - N/A   Overcast
3:08 AM 30.2 °F 22.6 °F - N/A% 29.95 in 9.0 mi NNW 8.1 mph - N/A   Overcast
3:13 AM 30.2 °F 21.3 °F - N/A% 29.95 in 9.0 mi North 10.4 mph - N/A   Overcast
3:20 AM 30.2 °F 23.4 °F - N/A% 29.95 in 9.0 mi North 6.9 mph - N/A   Overcast
3:36 AM 30.2 °F 21.9 °F - N/A% 29.95 in 9.0 mi NNE 9.2 mph - N/A   Overcast
3:50 AM 30.2 °F 22.6 °F - N/A% 29.94 in 9.0 mi NE 8.1 mph - N/A   Overcast
4:00 AM 30 °F - - % 29.96 in 9 mi NE 9.2 mph - -   Overcast
4:00 AM 30.2 °F 23.4 °F - N/A% 29.96 in 9.0 mi NE 6.9 mph - N/A   Overcast
4:03 AM 30.2 °F 24.3 °F - N/A% 29.95 in 9.0 mi NE 5.8 mph - N/A   Overcast
4:53 AM 28.4 °F 18.5 °F - N/A% 29.94 in 2.1 mi NE 11.5 mph - N/A   Clear
4:56 AM 28.4 °F 18.5 °F - N/A% 29.94 in 1.2 mi ENE 11.5 mph - N/A   Clear
5:00 AM 28.4 °F 19.7 °F - N/A% 29.95 in 1.0 mi ENE 9.2 mph - N/A   Clear
5:05 AM 28.4 °F 19.1 °F - N/A% 29.93 in 0.6 mi ENE 10.4 mph - N/A   Clear
5:10 AM 28.4 °F 19.1 °F - N/A% 29.94 in 0.4 mi ENE 10.4 mph - N/A   Clear
5:27 AM 28.4 °F 21.2 °F - N/A% 29.94 in 0.2 mi East 6.9 mph - N/A   Clear
6:00 AM 28.4 °F 20.4 °F - N/A% 29.95 in 0.2 mi ENE 8.1 mph - N/A   Clear
6:42 AM 28.4 °F 22.2 °F - N/A% 29.93 in 0.8 mi ESE 5.8 mph - N/A   Clear
6:45 AM 28.4 °F 21.2 °F - N/A% 29.93 in 1.8 mi ESE 6.9 mph - N/A   Clear
6:56 AM 28.4 °F 20.4 °F - N/A% 29.93 in 9.0 mi East 8.1 mph - N/A   Clear
7:00 AM 28 °F - - % 29.94 in 9 mi East 8.1 mph - -  
7:00 AM 28.4 °F 20.4 °F - N/A% 29.94 in 9.0 mi East 8.1 mph - N/A   Clear
7:25 AM 28.4 °F 19.7 °F - N/A% 29.91 in 9.0 mi East 9.2 mph - N/A   Clear
8:00 AM 28.4 °F 21.2 °F - N/A% 29.92 in 9.0 mi ESE 6.9 mph - N/A   Clear
9:00 AM 30.2 °F 20.8 °F - N/A% 29.91 in 9.0 mi ESE 11.5 mph - N/A   Clear
9:39 AM 30.2 °F 22.6 °F - N/A% 29.91 in 9.0 mi SSE 8.1 mph - N/A   Mostly Cloudy
9:42 AM 30.2 °F 21.9 °F - N/A% 29.91 in 9.0 mi SSE 9.2 mph - N/A   Overcast
9:53 AM 30.2 °F 21.3 °F - N/A% 29.90 in 9.0 mi SSE 10.4 mph - N/A   Scattered Clouds
9:56 AM 30.2 °F 21.9 °F - N/A% 29.90 in 9.0 mi SE 9.2 mph - N/A   Mostly Cloudy
9:59 AM 30.2 °F 21.9 °F - N/A% 29.90 in 9.0 mi SE 9.2 mph - N/A   Scattered Clouds
10:00 AM 30 °F - - % 29.92 in 9 mi SE 9.2 mph - -  
10:00 AM 30.2 °F 21.9 °F - N/A% 29.92 in 9.0 mi SE 9.2 mph - N/A   Partly Cloudy
10:04 AM 30.2 °F 22.6 °F - N/A% 29.90 in 9.0 mi SSE 8.1 mph - N/A   Mostly Cloudy
10:10 AM 30.2 °F 21.9 °F - N/A% 29.90 in 9.0 mi SE 9.2 mph - N/A   Partly Cloudy
10:38 AM 30.2 °F 24.3 °F - N/A% 29.91 in 9.0 mi SSW 5.8 mph - N/A   Clear
11:00 AM 32.0 °F 27.5 °F - N/A% 29.91 in 9.0 mi South 4.6 mph - N/A   Partly Cloudy
11:13 AM 32.0 °F 27.5 °F - N/A% 29.90 in 9.0 mi SSE 4.6 mph - N/A   Clear
12:00 PM 32.0 °F 25.6 °F - N/A% 29.90 in 9.0 mi South 6.9 mph - N/A   Clear
1:00 PM 34 °F - - % 29.89 in 9 mi SE 6.9 mph - -  
1:00 PM 33.8 °F 28.6 °F - N/A% 29.89 in 9.0 mi SE 5.8 mph - N/A   Clear
2:00 PM 35.6 °F 29.2 °F - N/A% 29.87 in 9.0 mi SE 8.1 mph - N/A   Clear
3:00 PM 37.4 °F 29.8 °F - N/A% 29.86 in 9.0 mi SE 11.5 mph - N/A   Clear
4:00 PM 37 °F - - % 29.85 in 9 mi SSE 12.7 mph - -  
4:00 PM 37.4 °F 29.3 °F - N/A% 29.85 in 9.0 mi SSE 12.7 mph - N/A   Mostly Cloudy
5:00 PM 35.6 °F 25.9 °F - N/A% 29.84 in 9.0 mi SSE 16.1 mph - N/A   Overcast
6:00 PM 33.8 °F 24.3 °F - N/A% 29.83 in 9.0 mi SE 13.8 mph - N/A   Overcast
6:17 PM 33.8 °F 24.3 °F - N/A% 29.81 in 9.0 mi SE 13.8 mph - N/A Rain Light Rain
6:42 PM 33.8 °F 24.8 °F - N/A% 29.80 in 9.0 mi SE 12.7 mph - N/A   Overcast
6:56 PM 33.8 °F 24.8 °F - N/A% 29.79 in 9.0 mi SE 12.7 mph - N/A Rain Light Rain
7:00 PM 34 °F - - % 29.81 in 9 mi SE 12.7 mph - -  
7:00 PM 33.8 °F 24.8 °F - N/A% 29.81 in 9.0 mi SE 12.7 mph - N/A Rain Light Rain
8:00 PM 33.8 °F 24.3 °F - N/A% 29.80 in 9.0 mi SE 13.8 mph - N/A Rain Light Rain
8:46 PM 33.8 °F 23.9 °F - N/A% 29.77 in 9.0 mi SSE 15.0 mph - N/A Snow Light Snow
8:53 PM 33.8 °F 24.3 °F - N/A% 29.77 in 9.0 mi SSE 13.8 mph - N/A   Overcast
8:54 PM 33.8 °F 24.3 °F - N/A% 29.77 in 9.0 mi SSE 13.8 mph - N/A Rain Light Rain
9:00 PM 33.8 °F 24.3 °F - N/A% 29.79 in 9.0 mi SSE 13.8 mph - N/A Rain Light Rain
10:00 PM 34 °F - - % 29.76 in 9 mi SE 15.0 mph - - Rain Light Rain
10:00 PM 33.8 °F 24.3 °F - N/A% 29.76 in 9.0 mi SE 13.8 mph - N/A Rain Light Rain
10:16 PM 33.8 °F 23.9 °F - N/A% 29.74 in 9.0 mi SE 15.0 mph - N/A   Partly Cloudy
10:39 PM 33.8 °F 24.8 °F - N/A% 29.74 in 9.0 mi SSE 12.7 mph - N/A Rain Light Rain
11:00 PM 33.8 °F 24.8 °F - N/A% 29.75 in 9.0 mi SSE 12.7 mph - N/A Rain Light Rain
11:52 PM 35.6 °F 25.9 °F - N/A% 29.72 in 9.0 mi SSE 16.1 mph - N/A   Overcast